User: anonymous
Location: Brno
(49.2000°N, 16.6330°E)
Time: 01:37:44
(UTC+02:00)
Language:

Cosmos 2227 - Orbit

View from above orbital plane
View from above orbital plane
View from above satellite
View from above satellite

Ground track
Ground track

The orbit data is extracted from the following two-line orbital elements,

1 22284U 92093A   14107.65641948  .00000434  00000-0  25701-3 0  8524
2 22284 070.9767 139.7847 0018121 125.2700 013.6523 14.13148197 99259
Epoch (UTC): 17 April 2014 15:45:14
Eccentricity: 0.0018121
inclination: 70.9767°
perigee height: 835 km
apogee height: 862 km
right ascension of ascending node: 139.7847°
argument of perigee: 125.2700°
revolutions per day: 14.13148197
mean anomaly at epoch: 13.6523°
orbit number at epoch: 9925

The dashed part of the orbit path shows where the satellite is in the earth's shadow,  

DLR